SL-8 R/B (3230 NORAD) Tracking and Keplerian Element Data

This shows tracking and keplerian element data for the satellite.

Feedback or suggestion? Click here.




ElementValue
Catalog3230
NameSL-8 R/B
Epoch Orbit5143
Epoch Day35.15021118
Epoch Year2025
RAAN45.8391
Inclination74.0324
Eccentricity0.0027724
Argument of Perigee330.3332
Mean Anonmoly29.628
Mean Motion14.99571234
Decay Rate5.901E-05
L11 03230U 68040B 25035.15021118 .00005901 00000+0 47889-3 0 9993
L22 03230 74.0324 45.8391 0027724 330.3332 29.6280 14.99571234 51434



Live tracking and technical data element details for SL-8 R/B (NORAD 3230). SL-8 R/B can be tracked NOW for your location showing map with azimuth and elevation plus other details from your city location.







IsCatalogInMostPopularTable: catalog: 3230, numindb: 292
Update: records affected: 1



GetName: 3230 SL-8 R/B

Hit Count: updated at: Thu, 15 May 2025 09:46:47 GMT